This is the latest recevied weather packets stored in our database for station/object N5PUP-13. If no packets are shown the sender has not sent any weather packets the latest 10 day(s).
| Time | Temp. | Humidity | Pressure | Rain* | Wind** | Luminosity | Snow |
|---|---|---|---|---|---|---|---|
| 1787422200 | 36.11° C | 36% | 1018.5 hPa | 0 mm | - | - | - |
| 1787421900 | 34.44° C | 38% | 1018.4 hPa | 0 mm | - | - | - |
| 1787421600 | 33.89° C | 40% | 1018.2 hPa | 0 mm | - | - | - |
| 1787421300 | 33.89° C | 39% | 1017.9 hPa | 0 mm | - | - | - |
| 1787421000 | 33.89° C | 39% | 1017.9 hPa | 0 mm | - | - | - |
| 1787420700 | 33.33° C | 41% | 1017.7 hPa | 0 mm | - | - | - |
| 1787420400 | 32.78° C | 41% | 1017.7 hPa | 0 mm | - | - | - |
| 1787420100 | 32.22° C | 41% | 1017.5 hPa | 0 mm | - | - | - |
| 1787419800 | 32.22° C | 42% | 1017.1 hPa | 0 mm | - | - | - |
| 1787419500 | 32.22° C | 43% | 1017.3 hPa | 0 mm | - | - | - |
| 1787419200 | 31.67° C | 44% | 1017.6 hPa | 0 mm | - | - | - |
| 1787418900 | 31.67° C | 44% | 1017.6 hPa | 0 mm | - | - | - |
| 1787418600 | 31.67° C | 45% | 1017.6 hPa | 0 mm | - | - | - |
| 1787418300 | 32.22° C | 44% | 1018.6 hPa | 0 mm | - | - | - |
| 1787418000 | 32.22° C | 44% | 1019 hPa | 0 mm | - | - | - |
| 1787417700 | 32.22° C | 44% | 1019 hPa | 0 mm | - | - | - |
| 1787417400 | 31.67° C | 44% | 1019.1 hPa | 0 mm | - | - | - |
| 1787417100 | 31.11° C | 45% | 1018.4 hPa | 0 mm | - | - | - |
| 1787416800 | 31.11° C | 45% | 1017.8 hPa | 0 mm | - | - | - |
| 1787416500 | 31.11° C | 46% | 1017.9 hPa | 0 mm | - | - | - |
| 1787416200 | 31.67° C | 45% | 1018.2 hPa | 0 mm | - | - | - |
| 1787415900 | 31.67° C | 43% | 1018.3 hPa | 0 mm | - | - | - |
| 1787415600 | 31.67° C | 43% | 1018.1 hPa | 0 mm | - | - | - |
| 1787415300 | 32.22° C | 42% | 1017.9 hPa | 0 mm | - | - | - |
| 1787415000 | 31.67° C | 44% | 1017.6 hPa | 0 mm | - | - | - |
* Rain latest hour (hover to see other rain measurements)
** Current wind speed in m/s (hover to see current wind gust speed)